MST,Max TemperatureF,Mean TemperatureF,Min TemperatureF,Max Dew PointF,MeanDew PointF,Min DewpointF,Max Humidity, Mean Humidity, Min Humidity, Max Sea Level PressureIn, Mean Sea Level PressureIn, Min Sea Level PressureIn, Max VisibilityMiles, Mean VisibilityMiles, Min VisibilityMiles, Max Wind SpeedMPH, Mean Wind SpeedMPH, Max Gust SpeedMPH,PrecipitationIn, CloudCover, Events, WindDirDegrees
2013-1-1,28,15,1,24,16,-1,95,84,73,30.17,30.02,29.89,10,8,0,26,13,32,0.01,4,Fog-Snow,281
2013-1-2,27,22,18,24,19,13,93,84,74,30.36,30.09,29.92,10,8,1,26,20,34,0.00,8,Snow,305
2013-1-3,28,20,12,16,12,7,88,69,50,30.34,30.19,30.11,10,10,10,22,15,26,0.00,2,,267
2013-1-4,29,20,11,16,11,5,76,65,53,30.16,30.09,29.99,10,10,10,18,11,21,0.00,0,,258
2013-1-5,28,21,13,20,13,9,88,78,68,30.24,30.14,29.97,10,10,9,32,16,38,0.00,1,,292
2013-1-6,33,21,9,21,15,6,91,75,59,30.21,29.97,29.83,10,10,10,22,11,26,0.00,0,,219
2013-1-7,32,23,13,23,17,11,88,78,68,29.92,29.86,29.71,10,10,10,21,11,24,0.00,2,,229
2013-1-8,38,30,21,30,25,14,85,77,69,30.04,29.79,29.56,10,8,1,28,16,33,T,4,Snow,262
2013-1-9,38,28,18,29,21,12,80,72,63,30.12,30.00,29.76,10,10,10,21,13,24,0.00,1,,192
2013-1-10,37,31,24,28,25,21,92,78,64,29.74,29.54,29.44,10,7,0,21,10,24,0.00,1,Fog,261
2013-1-11,24,14,3,21,8,-2,92,86,80,29.95,29.66,29.50,5,2,1,29,16,35,T,8,Rain-Snow,348
2013-1-12,4,0,-4,-2,-5,-10,87,78,68,30.29,30.11,29.80,10,6,0,29,16,36,T,4,Fog-Snow,307
2013-1-13,5,0,-5,0,-4,-10,87,79,71,30.30,30.21,30.03,10,8,1,21,10,23,T,7,Snow,292
2013-1-14,10,4,-2,7,0,-7,87,80,72,30.30,30.20,30.06,10,9,5,14,8,17,T,6,Snow,229
2013-1-15,37,22,7,31,24,0,89,78,67,30.05,29.81,29.69,10,7,2,32,19,38,T,8,Snow,262
2013-1-16,37,32,26,31,29,25,92,81,70,30.22,30.03,29.80,10,7,1,25,13,31,T,8,Snow,320
2013-1-17,36,32,28,30,27,24,92,78,64,30.36,30.18,29.90,10,10,10,23,10,28,0.00,6,,218
2013-1-18,39,34,29,28,26,22,75,67,59,29.87,29.81,29.76,10,10,10,23,14,26,0.00,1,,266
2013-1-19,35,20,4,28,11,-2,88,77,66,30.38,30.15,29.83,10,6,1,29,13,36,0.01,7,Snow,324
2013-1-20,9,-1,-11,5,-5,-20,88,76,63,30.61,30.40,30.16,10,6,1,24,16,29,0.04,5,Snow,322
2013-1-21,4,-1,-7,0,-8,-15,86,73,59,30.52,30.39,30.10,10,9,2,24,9,28,T,6,Snow,271
2013-1-22,22,12,2,14,5,0,88,80,71,30.27,30.20,30.13,10,10,10,15,9,16,T,5,,240
2013-1-23,9,4,-1,3,-2,-5,88,76,63,30.51,30.38,30.08,10,10,8,24,10,28,0.00,3,,34
2013-1-24,29,15,1,22,7,-4,88,78,68,30.32,30.08,29.91,10,7,2,32,19,37,0.00,4,,195
2013-1-25,26,19,12,21,14,10,100,89,77,30.20,30.09,30.01,10,7,0,18,11,23,0.00,2,Fog,130
2013-1-26,44,34,23,32,27,22,92,79,65,30.00,29.89,29.82,10,10,10,14,5,16,T,3,,174
2013-1-27,35,27,19,30,26,17,92,81,70,29.80,29.74,29.67,10,7,1,18,8,21,0.01,5,Snow,306
2013-1-28,34,25,15,30,26,14,100,88,75,29.83,29.78,29.70,10,9,2,18,8,22,T,5,Snow,275
2013-1-29,24,11,-2,18,9,-8,92,82,72,30.19,29.92,29.73,10,4,0,29,13,33,0.01,7,Fog-Snow,329
2013-1-30,1,-4,-9,-7,-10,-14,82,70,58,30.18,30.03,29.89,10,7,1,28,14,31,T,7,Snow,311
2013-1-31,7,-6,-19,1,-18,-25,78,71,63,30.47,30.20,29.97,10,5,0,32,15,38,T,5,Snow,297